Time,TemperatureF,DewpointF,PressureIn,WindDirection,WindDirectionDegrees,WindSpeedMPH,WindSpeedGustMPH,Humidity,HourlyPrecipIn,Conditions,Clouds,dailyrainin,SolarRadiationWatts/m^2,SoftwareType,DateUTC
2013-03-13 00:03:00,42.1,25.0,30.36,NW,315,15.0,-999.0,51,-99.99,,,0.00,0,weatherlink.com 1.10,2013-03-13 05:03:00,
2013-03-13 00:18:00,41.8,25.0,30.37,NNW,338,20.0,-999.0,52,-99.99,,,0.00,0,weatherlink.com 1.10,2013-03-13 05:18:00,
2013-03-13 00:33:00,41.4,26.0,30.37,NW,318,13.0,-999.0,54,-99.99,,,0.00,0,weatherlink.com 1.10,2013-03-13 05:33:00,
2013-03-13 00:48:00,41.0,25.0,30.37,NNW,336,18.0,-999.0,53,-99.99,,,0.00,0,weatherlink.com 1.10,2013-03-13 05:48:00,
2013-03-13 01:03:00,40.6,25.0,30.37,NW,318,13.0,-999.0,54,-99.99,,,0.00,0,weatherlink.com 1.10,2013-03-13 06:03:00,
2013-03-13 01:18:00,40.1,25.0,30.38,NW,319,9.0,-999.0,55,-99.99,,,0.00,0,weatherlink.com 1.10,2013-03-13 06:18:00,
2013-03-13 01:33:00,39.5,24.0,30.38,NW,313,11.0,-999.0,55,-99.99,,,0.00,0,weatherlink.com 1.10,2013-03-13 06:33:00,
2013-03-13 01:48:00,39.1,24.0,30.38,WNW,302,11.0,-999.0,56,-99.99,,,0.00,0,weatherlink.com 1.10,2013-03-13 06:48:00,
2013-03-13 02:04:00,38.6,25.0,30.38,NW,310,9.0,-999.0,58,-99.99,,,0.00,0,weatherlink.com 1.10,2013-03-13 07:04:00,
2013-03-13 02:18:00,38.2,24.0,30.38,NW,311,11.0,-999.0,58,-99.99,,,0.00,0,weatherlink.com 1.10,2013-03-13 07:18:00,
2013-03-13 02:33:00,37.5,25.0,30.38,WNW,302,9.0,-999.0,60,-99.99,,,0.00,0,weatherlink.com 1.10,2013-03-13 07:33:00,
2013-03-13 02:48:00,36.8,24.0,30.38,NW,309,8.0,-999.0,61,-99.99,,,0.00,0,weatherlink.com 1.10,2013-03-13 07:48:00,
2013-03-13 03:03:00,36.5,24.0,30.38,WNW,298,4.0,-999.0,61,-99.99,,,0.00,0,weatherlink.com 1.10,2013-03-13 08:03:00,
2013-03-13 03:18:00,36.4,24.0,30.37,WNW,303,7.0,-999.0,61,-99.99,,,0.00,0,weatherlink.com 1.10,2013-03-13 08:18:00,
2013-03-13 03:33:00,35.9,24.0,30.37,NW,304,6.0,-999.0,63,-99.99,,,0.00,0,weatherlink.com 1.10,2013-03-13 08:33:00,
2013-03-13 03:48:00,35.3,24.0,30.37,WNW,302,5.0,-999.0,64,-99.99,,,0.00,0,weatherlink.com 1.10,2013-03-13 08:48:00,
2013-03-13 04:03:00,35.0,24.0,30.37,NW,306,9.0,-999.0,65,-99.99,,,0.00,0,weatherlink.com 1.10,2013-03-13 09:03:00,
2013-03-13 04:19:00,34.7,25.0,30.38,NW,306,7.0,-999.0,69,-99.99,,,0.00,0,weatherlink.com 1.10,2013-03-13 09:19:00,
2013-03-13 04:34:00,34.1,25.0,30.38,NW,310,7.0,-999.0,69,-99.99,,,0.00,0,weatherlink.com 1.10,2013-03-13 09:34:00,
2013-03-13 04:49:00,34.3,25.0,30.39,NW,305,7.0,-999.0,68,-99.99,,,0.00,0,weatherlink.com 1.10,2013-03-13 09:49:00,
2013-03-13 05:04:00,34.1,25.0,30.39,NW,310,7.0,-999.0,70,-99.99,,,0.00,0,weatherlink.com 1.10,2013-03-13 10:04:00,
2013-03-13 05:19:00,33.9,25.0,30.39,NW,306,13.0,-999.0,69,-99.99,,,0.00,0,weatherlink.com 1.10,2013-03-13 10:19:00,
2013-03-13 05:35:00,33.8,25.0,30.40,NW,310,14.0,-999.0,70,-99.99,,,0.00,0,weatherlink.com 1.10,2013-03-13 10:35:00,
2013-03-13 05:49:00,33.1,25.0,30.41,NW,307,7.0,-999.0,71,-99.99,,,0.00,0,weatherlink.com 1.10,2013-03-13 10:49:00,
2013-03-13 06:04:00,32.9,24.0,30.41,NW,314,9.0,-999.0,71,-99.99,,,0.00,0,weatherlink.com 1.10,2013-03-13 11:04:00,
2013-03-13 06:19:00,32.6,24.0,30.42,WNW,303,8.0,-999.0,72,-99.99,,,0.00,0,weatherlink.com 1.10,2013-03-13 11:19:00,
2013-03-13 06:34:00,32.4,24.0,30.42,NW,307,12.0,-999.0,72,-99.99,,,0.00,0,weatherlink.com 1.10,2013-03-13 11:34:00,
2013-03-13 06:49:00,32.5,24.0,30.43,WNW,300,6.0,-999.0,71,-99.99,,,0.00,0,weatherlink.com 1.10,2013-03-13 11:49:00,
2013-03-13 07:04:00,32.2,24.0,30.43,NW,315,7.0,-999.0,72,-99.99,,,0.00,0,weatherlink.com 1.10,2013-03-13 12:04:00,
2013-03-13 07:19:00,32.1,24.0,30.44,NW,310,5.0,-999.0,72,-99.99,,,0.00,0,weatherlink.com 1.10,2013-03-13 12:19:00,
2013-03-13 07:35:00,32.2,24.0,30.44,NW,320,17.0,-999.0,72,-99.99,,,0.00,11,weatherlink.com 1.10,2013-03-13 12:35:00,
2013-03-13 07:50:00,32.0,24.0,30.45,NW,310,11.0,-999.0,71,-99.99,,,0.00,19,weatherlink.com 1.10,2013-03-13 12:50:00,
2013-03-13 08:05:00,31.8,24.0,30.45,NW,315,7.0,-999.0,72,-99.99,,,0.00,26,weatherlink.com 1.10,2013-03-13 13:05:00,
2013-03-13 08:20:00,32.1,24.0,30.47,NW,313,7.0,-999.0,71,-99.99,,,0.00,49,weatherlink.com 1.10,2013-03-13 13:20:00,
2013-03-13 08:35:00,32.3,23.0,30.48,NW,307,9.0,-999.0,68,-99.99,,,0.00,171,weatherlink.com 1.10,2013-03-13 13:35:00,
2013-03-13 08:50:00,32.6,22.0,30.48,NW,306,7.0,-999.0,66,-99.99,,,0.00,130,weatherlink.com 1.10,2013-03-13 13:50:00,
2013-03-13 09:05:00,33.0,22.0,30.49,WNW,299,11.0,-999.0,65,-99.99,,,0.00,65,weatherlink.com 1.10,2013-03-13 14:05:00,
2013-03-13 09:20:00,33.5,23.0,30.49,NW,309,11.0,-999.0,65,-99.99,,,0.00,327,weatherlink.com 1.10,2013-03-13 14:20:00,
2013-03-13 09:35:00,34.1,23.0,30.50,NW,317,12.0,-999.0,64,-99.99,,,0.00,378,weatherlink.com 1.10,2013-03-13 14:35:00,
2013-03-13 09:50:00,34.8,23.0,30.51,NW,322,9.0,-999.0,63,-99.99,,,0.00,427,weatherlink.com 1.10,2013-03-13 14:50:00,
2013-03-13 10:05:00,35.6,24.0,30.52,NW,306,8.0,-999.0,62,-99.99,,,0.00,469,weatherlink.com 1.10,2013-03-13 15:05:00,
2013-03-13 10:20:00,35.9,23.0,30.52,NW,315,8.0,-999.0,59,-99.99,,,0.00,513,weatherlink.com 1.10,2013-03-13 15:20:00,
2013-03-13 10:35:00,37.0,24.0,30.52,WNW,302,7.0,-999.0,59,-99.99,,,0.00,559,weatherlink.com 1.10,2013-03-13 15:35:00,
2013-03-13 10:50:00,38.1,23.0,30.52,NNW,331,14.0,-999.0,56,-99.99,,,0.00,596,weatherlink.com 1.10,2013-03-13 15:50:00,
2013-03-13 11:05:00,38.3,24.0,30.52,NW,315,8.0,-999.0,56,-99.99,,,0.00,635,weatherlink.com 1.10,2013-03-13 16:05:00,
2013-03-13 11:20:00,39.1,24.0,30.53,NNW,338,6.0,-999.0,54,-99.99,,,0.00,668,weatherlink.com 1.10,2013-03-13 16:20:00,
2013-03-13 11:50:00,40.7,24.0,30.52,NW,311,14.0,-999.0,51,-99.99,,,0.00,810,weatherlink.com 1.10,2013-03-13 16:50:00,
2013-03-13 12:05:00,41.4,23.0,30.52,NW,314,9.0,-999.0,48,-99.99,,,0.00,817,weatherlink.com 1.10,2013-03-13 17:05:00,
2013-03-13 12:21:00,42.1,24.0,30.52,NNW,336,12.0,-999.0,49,-99.99,,,0.00,775,weatherlink.com 1.10,2013-03-13 17:21:00,
2013-03-13 12:36:00,42.7,23.0,30.52,NNE,23,12.0,-999.0,46,-99.99,,,0.00,788,weatherlink.com 1.10,2013-03-13 17:36:00,
2013-03-13 12:51:00,43.5,23.0,30.52,NW,321,9.0,-999.0,45,-99.99,,,0.00,812,weatherlink.com 1.10,2013-03-13 17:51:00,
2013-03-13 13:06:00,44.2,23.0,30.51,NNW,328,12.0,-999.0,43,-99.99,,,0.00,809,weatherlink.com 1.10,2013-03-13 18:06:00,
2013-03-13 13:21:00,44.9,23.0,30.50,NW,313,9.0,-999.0,43,-99.99,,,0.00,663,weatherlink.com 1.10,2013-03-13 18:21:00,
2013-03-13 13:51:00,46.2,23.0,30.50,NNW,338,10.0,-999.0,40,-99.99,,,0.00,819,weatherlink.com 1.10,2013-03-13 18:51:00,
2013-03-13 14:36:00,47.8,23.0,30.48,NNW,343,12.0,-999.0,38,-99.99,,,0.00,770,weatherlink.com 1.10,2013-03-13 19:36:00,
2013-03-13 14:51:00,48.3,23.0,30.48,NNW,329,9.0,-999.0,37,-99.99,,,0.00,742,weatherlink.com 1.10,2013-03-13 19:51:00,
2013-03-13 15:06:00,48.5,22.0,30.47,NW,309,15.0,-999.0,35,-99.99,,,0.00,513,weatherlink.com 1.10,2013-03-13 20:06:00,
2013-03-13 15:36:00,48.5,22.0,30.46,North,355,5.0,-999.0,36,-99.99,,,0.00,673,weatherlink.com 1.10,2013-03-13 20:36:00,
2013-03-13 15:51:00,49.8,24.0,30.46,NW,321,9.0,-999.0,36,-99.99,,,0.00,652,weatherlink.com 1.10,2013-03-13 20:51:00,
2013-03-13 16:21:00,49.7,22.0,30.47,NW,313,7.0,-999.0,34,-99.99,,,0.00,243,weatherlink.com 1.10,2013-03-13 21:21:00,
2013-03-13 16:36:00,49.6,23.0,30.46,NW,318,8.0,-999.0,35,-99.99,,,0.00,443,weatherlink.com 1.10,2013-03-13 21:36:00,
2013-03-13 16:51:00,51.0,24.0,30.46,NW,319,10.0,-999.0,35,-99.99,,,0.00,536,weatherlink.com 1.10,2013-03-13 21:51:00,
2013-03-13 17:06:00,50.2,23.0,30.46,NW,324,9.0,-999.0,34,-99.99,,,0.00,408,weatherlink.com 1.10,2013-03-13 22:06:00,
2013-03-13 17:36:00,50.6,22.0,30.45,NNW,331,7.0,-999.0,33,-99.99,,,0.00,288,weatherlink.com 1.10,2013-03-13 22:36:00,
2013-03-13 17:51:00,50.5,22.0,30.45,NNW,342,5.0,-999.0,33,-99.99,,,0.00,216,weatherlink.com 1.10,2013-03-13 22:51:00,
2013-03-13 18:06:00,50.1,19.0,30.45,NNW,342,7.0,-999.0,29,-99.99,,,0.00,165,weatherlink.com 1.10,2013-03-13 23:06:00,
2013-03-13 18:21:00,49.9,21.0,30.45,NNW,345,6.0,-999.0,32,-99.99,,,0.00,121,weatherlink.com 1.10,2013-03-13 23:21:00,
2013-03-13 18:36:00,49.5,22.0,30.45,NNW,344,8.0,-999.0,34,-99.99,,,0.00,28,weatherlink.com 1.10,2013-03-13 23:36:00,
2013-03-13 18:51:00,49.0,21.0,30.45,North,349,5.0,-999.0,33,-99.99,,,0.00,18,weatherlink.com 1.10,2013-03-13 23:51:00,
2013-03-13 19:06:00,48.8,21.0,30.45,North,349,0.0,-999.0,34,-99.99,,,0.00,9,weatherlink.com 1.10,2013-03-14 00:06:00,
2013-03-13 19:21:00,48.8,20.0,30.45,North,349,0.0,-999.0,32,-99.99,,,0.00,0,weatherlink.com 1.10,2013-03-14 00:21:00,
2013-03-13 19:36:00,48.7,21.0,30.45,North,349,0.0,-999.0,33,-99.99,,,0.00,0,weatherlink.com 1.10,2013-03-14 00:36:00,
2013-03-13 19:51:00,48.2,21.0,30.45,North,349,0.0,-999.0,34,-99.99,,,0.00,0,weatherlink.com 1.10,2013-03-14 00:51:00,
2013-03-13 20:06:00,47.4,23.0,30.46,North,349,0.0,-999.0,38,-99.99,,,0.00,0,weatherlink.com 1.10,2013-03-14 01:06:00,
2013-03-13 20:21:00,46.5,22.0,30.46,North,349,0.0,-999.0,38,-99.99,,,0.00,0,weatherlink.com 1.10,2013-03-14 01:21:00,
2013-03-13 20:36:00,46.4,21.0,30.46,North,349,0.0,-999.0,37,-99.99,,,0.00,0,weatherlink.com 1.10,2013-03-14 01:36:00,
2013-03-13 20:51:00,46.4,21.0,30.46,North,349,0.0,-999.0,36,-99.99,,,0.00,0,weatherlink.com 1.10,2013-03-14 01:51:00,
2013-03-13 21:06:00,46.7,21.0,30.46,North,349,0.0,-999.0,36,-99.99,,,0.00,0,weatherlink.com 1.10,2013-03-14 02:06:00,
2013-03-13 21:21:00,44.9,31.0,30.47,North,349,0.0,-999.0,59,-99.99,,,0.00,0,weatherlink.com 1.10,2013-03-14 02:21:00,
2013-03-13 21:36:00,45.0,25.0,30.46,North,349,0.0,-999.0,45,-99.99,,,0.00,0,weatherlink.com 1.10,2013-03-14 02:36:00,
2013-03-13 21:51:00,45.2,22.0,30.46,North,349,0.0,-999.0,40,-99.99,,,0.00,0,weatherlink.com 1.10,2013-03-14 02:51:00,
2013-03-13 22:07:00,44.8,24.0,30.46,North,349,0.0,-999.0,44,-99.99,,,0.00,0,weatherlink.com 1.10,2013-03-14 03:07:00,
2013-03-13 22:22:00,44.4,25.0,30.47,North,349,0.0,-999.0,47,-99.99,,,0.00,0,weatherlink.com 1.10,2013-03-14 03:22:00,
2013-03-13 22:36:00,43.6,30.0,30.47,North,349,0.0,-999.0,60,-99.99,,,0.00,0,weatherlink.com 1.10,2013-03-14 03:36:00,
2013-03-13 22:51:00,41.6,28.0,30.47,North,349,0.0,-999.0,60,-99.99,,,0.00,0,weatherlink.com 1.10,2013-03-14 03:51:00,
2013-03-13 23:07:00,40.6,31.0,30.48,North,349,0.0,-999.0,69,-99.99,,,0.00,0,weatherlink.com 1.10,2013-03-14 04:07:00,
2013-03-13 23:22:00,39.4,30.0,30.48,North,349,0.0,-999.0,70,-99.99,,,0.00,0,weatherlink.com 1.10,2013-03-14 04:22:00,
2013-03-13 23:36:00,39.9,30.0,30.48,North,349,0.0,-999.0,69,-99.99,,,0.00,0,weatherlink.com 1.10,2013-03-14 04:36:00,
2013-03-13 23:51:00,38.7,31.0,30.48,North,349,0.0,-999.0,74,-99.99,,,0.00,0,weatherlink.com 1.10,2013-03-14 04:51:00,